Voltar ao catálogo

DELTA 1 DEB

AtivoLEO
NORAD 10214·DEBRIS·🇺🇸 United States

Lançado Jul 14, 1977 de Cape Canaveral Space Force Station

Loading…

Próximas Passagens (próximas 24 horas)

TLE

AtualizadoSource: Space-Track

Época: Sep 14, 2026, 13:54 UTC

1 10214U 77065AT  26257.57972817  .00001701  00000-0  56946-3 0  9993
2 10214  28.8760  90.2893 0487373  45.7117 318.2388 13.83513932365644

Acompanhe DELTA 1 DEB em tempo real com AllMySat

Download on the App Store